Weather History for Falfurrias, TX

Change the Weather History Date:

Friday, March 8, 2013

  Actual Average (KNQI) Record (KNQI)
Temperature  
Mean Temperature 74 °F -  
Max Temperature 81 °F 73 °F 93 °F (1999)
Min Temperature 68 °F 54 °F 34 °F (2008)
Cooling Degree Days 10    
Growing Degree Days 24 (Base 50)    
Moisture  
Dew Point 66 °F    
Average Humidity 77    
Maximum Humidity 92    
Minimum Humidity 54    
Precipitation  
Precipitation 0.00 in - - ()
Sea Level Pressure  
Sea Level Pressure 30.03 in    
Wind  
Wind Speed 11 mph (SE)    
Max Wind Speed 20 mph    
Max Gust Speed 25 mph    
Visibility 10 miles    
Events      
Averages and records for this station are not official NWS values.
T = Trace of Precipitation, MM = Missing Value Source: NWS Daily Summary

Daily Weather History Graph

Daily Weather History Graph

Search for Another Location

Airport:

Trip Planner

Search our weather history database for the weather conditions in past years. The results will help you decide how hot, cold, wet, or windy it might be!

Date:

Astronomy

Mar. 08, 2013 Rise Set
Actual Time 6:49 AM CST 6:37 PM CST
Civil Twilight 6:25 AM CST 7:00 PM CST
Nautical Twilight 5:58 AM CST 7:27 PM CST
Astronomical Twilight 5:31 AM CST 7:54 PM CST
Moon 4:19 AM CST (3/8) 3:46 PM CST (3/8)
Length of Visible Light 12h 34m
Length of Day
11h 48m
Waning Crescent, 11% of the Moon is Illuminated
Mar 8
Waning Crescent
Mar 11
New
Mar 19
First Quarter
Mar 27
Full
Apr 2
Last Quarter

Hourly Weather History & Observations

Time (CST) Temp. Heat Index Dew Point Humidity Pressure Visibility Wind Dir Wind Speed Gust Speed Precip Events Conditions
12:15 AM 71.6 °F - 65.7 °F 81% 30.10 in 10.0 mi SE 11.5 mph - N/A   Overcast
12:35 AM 71.6 °F - 65.8 °F 82% 30.09 in 10.0 mi SE 9.2 mph - N/A   Overcast
12:55 AM 71.6 °F - 65.8 °F 82% 30.09 in 10.0 mi ESE 8.1 mph - N/A   Overcast
1:15 AM 71.6 °F - 66.2 °F 83% 30.08 in 10.0 mi ESE 10.4 mph - N/A   Overcast
1:35 AM 72.0 °F - 66.2 °F 82% 30.08 in 10.0 mi SE 9.2 mph 16.1 mph N/A   Overcast
1:55 AM 72.0 °F - 66.2 °F 82% 30.08 in 10.0 mi SE 8.1 mph - N/A   Mostly Cloudy
2:15 AM 72.0 °F - 66.2 °F 82% 30.07 in 10.0 mi SE 6.9 mph - N/A   Overcast
2:35 AM 72.1 °F - 66.4 °F 82% 30.06 in 10.0 mi SE 8.1 mph - N/A   Overcast
2:55 AM 72.1 °F - 66.4 °F 82% 30.06 in 10.0 mi SE 8.1 mph - N/A   Overcast
3:15 AM 72.0 °F - 66.6 °F 83% 30.05 in 10.0 mi SE 8.1 mph - N/A   Overcast
3:55 AM 71.6 °F - 67.1 °F 86% 30.03 in 10.0 mi SE 9.2 mph - N/A   Overcast
4:15 AM 71.1 °F - 67.1 °F 87% 30.02 in 10.0 mi SE 9.2 mph - N/A   Scattered Clouds
4:35 AM 70.7 °F - 67.1 °F 88% 30.03 in 10.0 mi SE 8.1 mph - N/A   Scattered Clouds
4:55 AM 70.7 °F - 67.3 °F 89% 30.04 in 10.0 mi SE 6.9 mph - N/A   Overcast
5:15 AM 70.7 °F - 67.1 °F 88% 30.06 in 10.0 mi SE 5.8 mph - N/A   Overcast
6:35 AM 68.9 °F - 66.4 °F 92% 30.05 in 10.0 mi SE 8.1 mph - N/A   Clear
6:55 AM 68.5 °F - 66.2 °F 92% 30.05 in 10.0 mi SE 6.9 mph - N/A   Clear
7:15 AM 68.2 °F - 65.8 °F 92% 30.05 in 10.0 mi SE 8.1 mph - N/A   Clear
7:35 AM 68.0 °F - 65.5 °F 92% 30.05 in 10.0 mi ESE 5.8 mph - N/A   Clear
7:55 AM 68.0 °F - 65.5 °F 92% 30.06 in 10.0 mi ESE 6.9 mph - N/A   Clear
8:15 AM 68.5 °F - 65.8 °F 91% 30.06 in 10.0 mi ESE 6.9 mph - N/A   Scattered Clouds
8:35 AM 69.1 °F - 66.2 °F 91% 30.07 in 10.0 mi SE 6.9 mph - N/A   Mostly Cloudy
8:55 AM 70.2 °F - 66.2 °F 87% 30.07 in 10.0 mi SE 8.1 mph - N/A   Overcast
9:15 AM 71.6 °F - 66.9 °F 85% 30.07 in 10.0 mi SE 9.2 mph - N/A   Overcast
9:35 AM 72.5 °F - 67.3 °F 84% 30.07 in 7.0 mi SE 11.5 mph 16.1 mph N/A   Overcast
9:55 AM 73.8 °F - 67.3 °F 80% 30.08 in 10.0 mi SSE 11.5 mph 17.3 mph N/A   Overcast
10:15 AM 75.2 °F - 67.5 °F 77% 30.07 in 7.0 mi SE 11.5 mph 17.3 mph N/A   Overcast
10:35 AM 76.3 °F - 67.1 °F 73% 30.07 in 10.0 mi SE 16.1 mph 23.0 mph N/A   Mostly Cloudy
10:55 AM 78.4 °F - 66.4 °F 66% 30.07 in 10.0 mi SSE 13.8 mph 23.0 mph N/A   Mostly Cloudy
11:15 AM 80.4 °F 82.4 °F 65.7 °F 61% 30.06 in 10.0 mi SE 17.3 mph 25.3 mph N/A   Mostly Cloudy
11:35 AM 80.2 °F 81.8 °F 63.9 °F 57% 30.06 in 10.0 mi SE 13.8 mph 25.3 mph N/A   Mostly Cloudy
11:55 AM 79.7 °F - 63.1 °F 57% 30.05 in 10.0 mi SE 12.7 mph 24.2 mph N/A   Overcast
12:15 PM 79.7 °F - 63.3 °F 57% 30.03 in 10.0 mi SSE 12.7 mph 20.7 mph N/A   Overcast
12:35 PM 79.7 °F - 64.6 °F 60% 30.02 in 10.0 mi SE 16.1 mph 25.3 mph N/A   Overcast
12:55 PM 79.7 °F - 64.6 °F 60% 30.01 in 10.0 mi SE 18.4 mph - N/A   Overcast
1:15 PM 80.2 °F 81.9 °F 64.4 °F 58% 30.00 in 10.0 mi SE 15.0 mph 24.2 mph N/A   Overcast
1:35 PM 80.4 °F 82.1 °F 64.4 °F 58% 30.00 in 10.0 mi SSE 15.0 mph 24.2 mph N/A   Overcast
1:55 PM 80.8 °F 82.5 °F 64.6 °F 58% 29.98 in 10.0 mi SE 15.0 mph 21.9 mph N/A   Overcast
2:15 PM 81.7 °F 83.0 °F 63.5 °F 54% 29.98 in 10.0 mi SE 15.0 mph 21.9 mph N/A   Overcast
2:35 PM 81.0 °F 82.6 °F 64.6 °F 57% 29.98 in 10.0 mi ESE 13.8 mph 23.0 mph N/A   Overcast
2:55 PM 80.4 °F 82.0 °F 64.0 °F 57% 29.98 in 10.0 mi ESE 12.7 mph 17.3 mph N/A   Overcast
3:15 PM 79.3 °F - 65.7 °F 63% 29.98 in 10.0 mi ESE 16.1 mph 20.7 mph N/A   Overcast
3:35 PM 77.9 °F - 66.2 °F 67% 29.99 in 10.0 mi ESE 16.1 mph 21.9 mph N/A   Overcast
3:55 PM 77.2 °F - 66.6 °F 70% 29.98 in 10.0 mi East 16.1 mph - N/A   Overcast
4:15 PM 77.0 °F - 66.6 °F 70% 29.99 in 10.0 mi ESE 16.1 mph 23.0 mph N/A   Overcast
4:35 PM 76.3 °F - 66.6 °F 72% 29.99 in 10.0 mi ESE 17.3 mph 23.0 mph N/A   Overcast
4:55 PM 75.9 °F - 66.4 °F 72% 29.99 in 10.0 mi ESE 17.3 mph 25.3 mph N/A   Overcast
5:15 PM 75.2 °F - 66.2 °F 73% 30.00 in 10.0 mi ESE 15.0 mph 24.2 mph N/A   Overcast
5:35 PM 74.8 °F - 66.2 °F 74% 30.01 in 10.0 mi ESE 15.0 mph - N/A   Overcast
5:55 PM 74.5 °F - 66.2 °F 75% 30.01 in 10.0 mi ESE 16.1 mph 24.2 mph N/A   Overcast
6:15 PM 74.1 °F - 66.2 °F 76% 30.01 in 10.0 mi ESE 19.6 mph 25.3 mph N/A   Scattered Clouds
6:35 PM 73.6 °F - 66.0 °F 77% 30.01 in 10.0 mi ESE 17.3 mph - N/A   Scattered Clouds
6:55 PM 73.4 °F - 66.0 °F 78% 30.01 in 10.0 mi ESE 16.1 mph 23.0 mph N/A   Scattered Clouds
7:15 PM 72.9 °F - 65.8 °F 79% 30.01 in 10.0 mi ESE 13.8 mph 20.7 mph N/A   Clear
7:35 PM 72.7 °F - 65.7 °F 79% 30.01 in 10.0 mi SE 16.1 mph 19.6 mph N/A   Mostly Cloudy
7:55 PM 72.5 °F - 65.5 °F 79% 30.02 in 10.0 mi SE 15.0 mph 23.0 mph N/A   Mostly Cloudy
8:15 PM 72.5 °F - 65.5 °F 79% 30.02 in 10.0 mi SE 15.0 mph 21.9 mph N/A   Mostly Cloudy
8:35 PM 72.5 °F - 65.5 °F 79% 30.02 in 10.0 mi SE 11.5 mph 20.7 mph N/A   Scattered Clouds
8:55 PM 72.5 °F - 65.5 °F 79% 30.03 in 10.0 mi SE 13.8 mph 20.7 mph N/A   Clear
9:15 PM 72.5 °F - 65.5 °F 79% 30.02 in 10.0 mi SE 11.5 mph - N/A   Scattered Clouds
9:35 PM 72.1 °F - 65.7 °F 80% 30.02 in 10.0 mi SE 12.7 mph 21.9 mph N/A   Scattered Clouds
9:55 PM 72.1 °F - 65.7 °F 80% 30.02 in 10.0 mi SE 13.8 mph 20.7 mph N/A   Clear
10:15 PM 72.5 °F - 65.8 °F 80% 30.02 in 10.0 mi SE 12.7 mph 18.4 mph N/A   Scattered Clouds
10:35 PM 72.5 °F - 65.8 °F 80% 30.01 in 10.0 mi SE 12.7 mph 18.4 mph N/A   Mostly Cloudy
10:55 PM 72.5 °F - 66.2 °F 81% 30.01 in 10.0 mi SSE 11.5 mph 17.3 mph N/A   Mostly Cloudy
11:15 PM 72.5 °F - 66.4 °F 81% 30.01 in 10.0 mi SE 13.8 mph 18.4 mph N/A   Mostly Cloudy
11:35 PM 72.5 °F - 66.6 °F 82% 30.00 in 10.0 mi SE 13.8 mph 19.6 mph N/A   Mostly Cloudy
11:55 PM 72.5 °F - 66.7 °F 82% 29.99 in 10.0 mi SE 16.1 mph 23.0 mph N/A   Mostly Cloudy